ASTRA 1G
1 25071U 97076A   03023.00000000  .00000124  00000-0  10000-3 0  3885
2 25071   0.0122 319.8851 0002995  65.1991 116.0322  1.00273184 18878
INMARSAT 3-F5
1 25153U 98006B   03035.83782975  .00000138  00000-0  10000-3 0  8398
2 25153   0.4536 357.6188 0004473 319.4892 144.0877  1.00275464 18366
HOT BIRD 4
1 25237U 98013A   03013.80550721  .00000107  00000-0  10000-3 0  3250
2 25237   0.0242 116.4838 0007929 193.6371 105.7449  1.00276095 18185
NOAA 15
1 25338U 98030A   03035.96924493 +.00000165 +00000-0 +89995-4 0 09994
2 25338 098.5501 058.4874 0010775 001.9118 358.2100 14.24237779245867
RESURS O1-N4
1 25394U 98043A   03036.21421566  .00000120  00000-0  71557-4 0  4409
2 25394  98.6352 114.3898 0002051 126.5030 233.6338 14.23872276237638
TMSAT
1 25396U 98043C   03035.97011131 -.00000043 +00000-0 +00000-0 0 08248
2 25396 098.6295 113.3420 0003274 153.1916 206.9434 14.23506414237596
TECHSAT 1B
1 25397U 98043D   03035.63506632 -.00000043 +00000-0 -83465-7 0 01356
2 25397 098.6227 111.9131 0001642 150.2515 209.8757 14.22956023237511
ASTRA 2A
1 25462U 98050A   03023.69277567  .00000000  00000-0  10000-3 0  5291
2 25462   0.0332  23.2945 0014243 166.1651 210.9165  1.00270553 16187
EUTELSAT W2
1 25491U 98056A   03034.84678898  .00000097  00000-0  00000+0 0  5729
2 25491   0.0026 329.6009 0003696 331.9696 152.8258  1.00271574 15904
HOT BIRD 5
1 25495U 98057A   03034.83168378  .00000149  00000-0  00000+0 0  4974
2 25495   0.0135 177.1706 0004078 128.9421 159.9706  1.00274965 15873
SEDSAT 1
1 25509U 98061B   03035.73413772 +.00000748 +00000-0 +13699-3 0 07729
2 25509 031.4279 231.3027 0357663 182.1138 177.7925 14.27410520223338
PAN SAT
1 25520U 98064B   03035.97864957 +.00002906 +00000-0 +14649-3 0 06369
2 25520 028.4590 314.3667 0005515 201.0861 158.9512 15.13808697235524
ISS (ZARYA)
1 25544U 98067A   03036.49214120  .00026868  00000-0  32688-3 0  6587
2 25544  51.6370 321.6960 0005519 116.1046 226.5451 15.60326561240455
ORSTED
1 25635U 99008B   03036.50854753  .00000920  00000-0  24018-3 0  8242
2 25635  96.4489  25.8671 0146178  11.0981 349.3381 14.44809979208050
SUNSAT
1 25636U 99008C   03035.98718696 +.00000465 +00000-0 +12938-3 0 07329
2 25636 096.4516 024.1558 0150140 018.9892 341.6819 14.42938440207851
UOSAT 12
1 25693U 99021A   03036.47694337  .00000535  00000-0  96483-4 0  6793
2 25693  64.5579  50.8565 0019147 316.9678  42.9940 14.76371716204326
FENGYUN 1C
1 25730U 99025A   03036.18694587  .00000023  00000-0  35939-4 0  7594
2 25730  98.6348  61.0892 0015118  43.2160 317.0196 14.11732179192741
ASTRA 1H
1 25785U 99033A   03023.00000000  .00000123  00000-0  10000-3 0  3690
2 25785   0.0122 319.8851 0002995  65.1991 116.0174  1.00273184 13230
TERRA
1 25994U 99068A   03036.26565353  .00000577  00000-0  13817-3 0  6683
2 25994  98.2003 112.6914 0001048  72.2757 287.8556 14.57115479166738
JAWSAT
1 26061U 00004A   03035.87030376  .00000483  00000-0  17893-3 0  7572
2 26061 100.2099  90.3961 0034830 318.8154  41.0402 14.37807214158567
OPAL
1 26063U 00004C   03036.17266571  .00000149  00000-0  71978-4 0  7143
2 26063 100.2149  88.3219 0037164 325.0601  34.8137 14.35475176158468
ASUSAT
1 26065U 00004E   03036.54799311  .00000175  00000-0  80852-4 0  7262
2 26065 100.2115  88.9103 0037032 325.1198  34.7556 14.35502570158516
GOES 11
1 26352U 00022A   03036.42531797 -.00000037  00000-0  10000-3 0    88
2 26352   0.1035 102.9340 0003692 213.6350 218.6060  1.00263671 10109
EUTELSAT W4
1 26369U 00028A   03028.81856696  .00000150  00000-0  00000+0 0  3481
2 26369   0.0297  41.0424 0009627 313.4883 103.8214  1.00274845  9846
FENGYUN 2B
1 26382U 00032A   03036.24623404 -.00000331  00000-0  00000+0 0  7853
2 26382   0.5890 287.1581 0001679 223.2366 177.2557  1.00282261  9571
EUTELSAT W1
1 26487U 00052A   03032.84759476  .00000058  00000-0  10000-3 0  3500
2 26487   0.0132 253.0304 0004193 328.4501 225.2537  1.00272552  8853
ASTRA 2B
1 26494U 00054A   03023.00000000  .00000154  00000-0  00000+0 0  2523
2 26494   0.0178 354.5658 0005000 302.8402 212.7100  1.00276704  8652
NOAA 16
1 26536U 00055A   03035.90477657  .00000551  00000-0  32552-3 0  1968
2 26536  98.9009 344.2908 0010370 349.0782  11.0326 14.11897499122228
SAUDISAT 1A
1 26545U 00057A   03035.61636377 +.00001385 +00000-0 +20233-3 0 04089
2 26545 064.5584 074.8057 0053044 241.1073 118.4724 14.78942739127169
UNISAT
1 26547U 00057C   03035.60987836 +.00002149 +00000-0 +29594-3 0 04278
2 26547 064.5574 077.1138 0060193 243.4530 116.0408 14.79682882127122
TIUNGSAT 1
1 26548U 00057D   03035.52537267 +.00001639 +00000-0 +22475-3 0 04138
2 26548 064.5577 068.1304 0046279 240.1427 119.5082 14.81219227127295
SAUDISAT 1B
1 26549U 00057E   03036.52210659  .00001122  00000-0  17111-3 0  6841
2 26549  64.5543  76.0692 0057365 241.0895 118.4456 14.77883143127218
AMSAT OSCAR 40
1 26609U 00072B   03035.10689355 -.00000169 +00000-0 +10000-3 0 03108
2 26609 008.0513 066.8265 7939440 140.0872 318.9916 01.25596472010406
GOES 12
1 26871U 01  03036.41134396  .00000219  00000-0  97364-4 0  9119
2 27386  98.5459 105.1505 0000966  92.3705 267.7589 14.32253070 48869
IDEFIX/ARIANE 42P
1 27422U 02021B   03036.21913915  .00000228  00000-0  10976-3 0  2255
2 27422  98.6966 115.4812 0012624 185.1476 174.9577 14.27961896 39557
FENGYUN 1D
1 27431U 02024B   03035.96206361 +.00000094 +00000-0 +78783-4 0 02307
2 27431 098.7711 085.3071 0015756 160.3626 199.8155 14.09177705037452
NOAA 17
1 27453U 02032A   03035.92754442 +.00000246 +00000-0 +12814-3 0 02956
2 27453 098.7604 107.2101 0012481 039.3212 320.8869 14.23284333032021
HOT BIRD 6
1 27499U 02038A   03013.80550721  .00000106  00000-0  10000-3 0   665
2 27499   0.0928  32.8693 0008090 290.3889  92.5421  1.00271722  1476
RUBIN 2
1 27605U 02058A   03036.12236480 -.00002107  00000-0 -31522-3 0   475
2 27605  64.5588 238.0747 0031621 119.3804 241.0438 14.71368969  6831
